Weather History for KHMN - July, 2013

Change the Weather History Date:

Thursday, July 4, 2013

  Actual Average Record
Temperature  
Mean Temperature 78 °F -  
Max Temperature 93 °F 92 °F 96 °F (1996)
Min Temperature 64 °F 65 °F 64 °F (2008)
Cooling Degree Days 14    
Growing Degree Days 28 (Base 50)    
Moisture  
Dew Point 52 °F    
Average Humidity 43    
Maximum Humidity 73    
Minimum Humidity 20    
Precipitation  
Precipitation 0.00 in - - ()
Sea Level Pressure  
Sea Level Pressure 29.75 in    
Wind  
Wind Speed 4 mph (SW)    
Max Wind Speed 10 mph    
Max Gust Speed -    
Visibility 7 miles    
Events      
Averages and records for this station are not official NWS values.
T = Trace of Precipitation, MM = Missing Value Source: NWS Daily Summary

Daily Weather History Graph

Daily Weather History Graph

Search for Another Location

Airport or City:

Trip Planner

Search our weather history database for the weather conditions in past years. The results will help you decide how hot, cold, wet, or windy it might be!

Date:

Astronomy

Jul. 04, 2013 Rise Set
Actual Time 6:01 AM MDT 8:16 PM MDT
Civil Twilight 5:32 AM MDT 8:44 PM MDT
Nautical Twilight 4:58 AM MDT 9:19 PM MDT
Astronomical Twilight 4:20 AM MDT 9:57 PM MDT
Moon 3:15 AM MDT (7/4) 5:26 PM MDT (7/4)
Length of Visible Light 15h 11m
Length of Day
14h 15m
Waning Crescent, 11% of the Moon is Illuminated
Jul 4
Waning Crescent
Jul 8
New
Jul 15
First Quarter
Jul 22
Full
Jul 29
Last Quarter

Hourly Weather History & Observations

Time (MDT) Temp. Dew Point Humidity Pressure Visibility Wind Dir Wind Speed Gust Speed Precip Events Conditions
12:58 AM 69.8 °F 53.6 °F 56% 29.81 in 7.0 mi NNE 8.1 mph - N/A   Clear
1:58 AM 68.0 °F 53.6 °F 60% 29.80 in 7.0 mi East 2.3 mph - N/A   Clear
2:58 AM 64.4 °F 55.4 °F 73% 29.78 in 7.0 mi NW 1.2 mph - N/A   Clear
3:58 AM 64.4 °F 55.4 °F 73% 29.76 in 7.0 mi Calm Calm - N/A   Clear
4:58 AM 66.2 °F 53.6 °F 64% 29.75 in 7.0 mi SE 4.6 mph - N/A   Partly Cloudy
5:58 AM 64.4 °F 55.4 °F 73% 29.78 in 7.0 mi West 5.8 mph - N/A   Clear
6:58 AM 64.4 °F 55.4 °F 73% 29.78 in 7.0 mi NNE 4.6 mph - N/A   Clear
7:58 AM 69.8 °F 53.6 °F 56% 29.78 in 7.0 mi Calm Calm - N/A   Clear
8:58 AM 69.8 °F 55.4 °F 60% 29.81 in 7.0 mi SW 3.5 mph - N/A   Clear
9:58 AM 73.4 °F 55.4 °F 53% 29.83 in 7.0 mi WSW 4.6 mph - N/A   Clear
10:58 AM 78.8 °F 55.4 °F 44% 29.82 in 7.0 mi North 1.2 mph - N/A   Clear
11:58 AM 84.2 °F 50.0 °F 30% 29.79 in 7.0 mi Variable 3.5 mph - N/A   Partly Cloudy
12:58 PM 87.8 °F 50.0 °F 27% 29.77 in 7.0 mi SSW 5.8 mph - N/A   Scattered Clouds
1:58 PM 89.6 °F 50.0 °F 26% 29.75 in 7.0 mi Variable 3.5 mph - N/A   Partly Cloudy
2:58 PM 91.4 °F 51.8 °F 26% 29.72 in 7.0 mi Variable 5.8 mph - N/A   Clear
3:58 PM 93.2 °F 50.0 °F 23% 29.70 in 7.0 mi Variable 2.3 mph - N/A   Clear
4:58 PM 93.2 °F 46.4 °F 20% 29.67 in 7.0 mi Variable 1.2 mph - N/A   Clear
5:58 PM 93.2 °F 46.4 °F 20% 29.67 in 7.0 mi South 5.8 mph - N/A   Clear
6:58 PM 91.4 °F 46.4 °F 21% 29.68 in 7.0 mi SSW 5.8 mph - N/A   Clear
7:58 PM 87.8 °F 48.2 °F 25% 29.69 in 7.0 mi South 10.4 mph - N/A   Clear
8:58 PM 86.0 °F 48.2 °F 27% 29.70 in 7.0 mi SW 8.1 mph - N/A   Clear
9:58 PM 82.4 °F 48.2 °F 30% 29.71 in 7.0 mi SW 5.8 mph - N/A   Clear
10:58 PM 78.8 °F 50.0 °F 36% 29.73 in 7.0 mi SSE 1.2 mph - N/A   Clear
11:58 PM 78.8 °F 50.0 °F 36% 29.73 in 7.0 mi NNW 3.5 mph - N/A   Clear